This is the latest recevied weather packets stored in our database for station/object SV1JSO-13. If no packets are shown the sender has not sent any weather packets the latest 10 day(s).
| Time | Temp. | Humidity | Pressure | Rain* | Wind** | Luminosity | Snow |
|---|---|---|---|---|---|---|---|
| 1787821200 | 34.44° C | 27% | 1010 hPa | 0 mm | - | 689 W/m² | - |
| 1787820900 | 34.44° C | 26% | 1010.1 hPa | 0 mm | - | 681 W/m² | - |
| 1787820600 | 34.44° C | 26% | 1009.9 hPa | 0 mm | - | 671 W/m² | - |
| 1787820300 | 34.44° C | 26% | 1010 hPa | 0 mm | - | 656 W/m² | - |
| 1787820000 | 34.44° C | 27% | 1009.9 hPa | 0 mm | - | 649 W/m² | - |
| 1787819700 | 34.44° C | 27% | 1009.8 hPa | 0 mm | - | 642 W/m² | - |
| 1787819400 | 34.44° C | 27% | 1009.8 hPa | 0 mm | - | 636 W/m² | - |
| 1787819100 | 34.44° C | 26% | 1009.7 hPa | 0 mm | - | 624 W/m² | - |
| 1787818800 | 34.44° C | 27% | 1009.8 hPa | 0 mm | - | 616 W/m² | - |
| 1787818500 | 34.44° C | 27% | 1009.6 hPa | 0 mm | - | 605 W/m² | - |
| 1787818200 | 34.44° C | 28% | 1009.7 hPa | 0 mm | - | 595 W/m² | - |
| 1787817900 | 33.89° C | 28% | 1009.6 hPa | 0 mm | - | 579 W/m² | - |
| 1787817600 | 34.44° C | 28% | 1009.7 hPa | 0 mm | - | 570 W/m² | - |
| 1787817300 | 33.89° C | 29% | 1009.6 hPa | 0 mm | - | 559 W/m² | - |
| 1787817000 | 33.89° C | 29% | 1009.7 hPa | 0 mm | - | 542 W/m² | - |
| 1787816700 | 33.33° C | 30% | 1009.6 hPa | 0 mm | - | 532 W/m² | - |
| 1787816400 | 33.89° C | 30% | 1009.4 hPa | 0 mm | - | 522 W/m² | - |
| 1787816100 | 33.33° C | 30% | 1009.5 hPa | 0 mm | - | 508 W/m² | - |
| 1787815800 | 33.33° C | 30% | 1009.5 hPa | 0 mm | - | 496 W/m² | - |
| 1787815500 | 33.33° C | 30% | 1009.5 hPa | 0 mm | - | 485 W/m² | - |
| 1787815200 | 33.33° C | 30% | 1009.4 hPa | 0 mm | - | 468 W/m² | - |
| 1787814900 | 33.33° C | 30% | 1009.4 hPa | 0 mm | - | 455 W/m² | - |
| 1787814600 | 33.33° C | 30% | 1009.5 hPa | 0 mm | - | 439 W/m² | - |
| 1787814301 | 33.33° C | 29% | 1009.5 hPa | 0 mm | - | 428 W/m² | - |
| 1787814000 | 33.33° C | 29% | 1009.4 hPa | 0 mm | - | 410 W/m² | - |
* Rain latest hour (hover to see other rain measurements)
** Current wind speed in m/s (hover to see current wind gust speed)